This is the latest recevied weather packets stored in our database for station/object K5NCO. If no packets are shown the sender has not sent any weather packets the latest 10 day(s).
| Time | Temp. | Humidity | Pressure | Rain* | Wind** | Luminosity | Snow |
|---|---|---|---|---|---|---|---|
| 1777617956 | 15.56° C | 99% | 1014.7 hPa | 0 mm | - | 0 W/m² | - |
| 1777617651 | 15.56° C | 99% | 1014.9 hPa | 0 mm | - | 0 W/m² | - |
| 1777617347 | 15.56° C | 99% | 1014.8 hPa | 0 mm | - | 0 W/m² | - |
| 1777617046 | 15.56° C | 99% | 1014.7 hPa | 0 mm | - | 0 W/m² | - |
| 1777616745 | 15.56° C | 99% | 1014.4 hPa | 0 mm | - | 0 W/m² | - |
| 1777616440 | 15.56° C | 99% | 1014.5 hPa | 0 mm | - | 0 W/m² | - |
| 1777616137 | 15.56° C | 99% | 1014.7 hPa | 0 mm | - | 0 W/m² | - |
| 1777615834 | 15.56° C | 99% | 1014.5 hPa | 0 mm | - | 0 W/m² | - |
| 1777615531 | 15.56° C | 99% | 1014.3 hPa | 0 mm | - | 0 W/m² | - |
| 1777615226 | 15.56° C | 99% | 1014.3 hPa | 0 mm | - | 0 W/m² | - |
| 1777614921 | 15.56° C | 99% | 1014.8 hPa | 0 mm | - | 0 W/m² | - |
| 1777614618 | 16.11° C | 99% | 1014.9 hPa | 0 mm | - | 0 W/m² | - |
| 1777614313 | 16.11° C | 99% | 1014.9 hPa | 0 mm | - | 0 W/m² | - |
| 1777614008 | 16.11° C | 99% | 1015 hPa | 0 mm | - | 0 W/m² | - |
| 1777613704 | 16.11° C | 99% | 1015.1 hPa | 0 mm | - | 0 W/m² | - |
| 1777613402 | 16.11° C | 99% | 1015.1 hPa | 0 mm | - | 0 W/m² | - |
| 1777613098 | 16.11° C | 99% | 1015.2 hPa | 0 mm | - | 0 W/m² | - |
| 1777612794 | 16.11° C | 99% | 1015.2 hPa | 1.78 mm | - | 0 W/m² | - |
| 1777612490 | 16.67° C | 99% | 1015.1 hPa | 1.78 mm | - | 0 W/m² | - |
| 1777612186 | 16.67° C | 99% | 1015.3 hPa | 0 mm | - | 0 W/m² | - |
| 1777611881 | 16.67° C | 99% | 1014.3 hPa | 0 mm | - | 0 W/m² | - |
| 1777611578 | 16.67° C | 99% | 1015 hPa | 1.27 mm | - | 0 W/m² | - |
| 1777611274 | 16.67° C | 99% | 1015.3 hPa | 1.27 mm | - | 0 W/m² | - |
| 1777610971 | 16.67° C | 99% | 1015.5 hPa | 3.05 mm | - | 0 W/m² | - |
| 1777610667 | 16.67° C | 99% | 1015.4 hPa | 1.78 mm | - | 0 W/m² | - |
* Rain latest hour (hover to see other rain measurements)
** Current wind speed in m/s (hover to see current wind gust speed)